[[{"header":{"parameterUnit":"m.s-1","parameterCategory":1,"la1":30.2991,"la2":30.254,"lo1":-89.0895,"lo2":-89.0444,"dy":0.0017,"dx":0.0017,"nx":28,"ny":28,"refTime":"2023-06-26T21:00:00:Z","depth":0,"parameterNumber":2,"parameterNumberName":"U-component_of_WINDS"},"data":[0,0,0,0,0,0,0,0,0,0,0,0,0,0,0,0,0,0,0,0,0,0,0,0,0,0,0,0,0,0,0,0,0,0,0,0,0,0,0,0,0,0,0,0,0,0,0,0,0,0,0,0,0,0,0,0,0,0,1.1116,1.1118,0,1.1274,1.1276,1.1278,1.1286,1.1284,1.1282,1.128,1.1446,1.1452,1.1458,0,0,0,0,0,0,0,0,0,0,0,0,0,1.0825,1.083,1.1116,1.1118,1.112,1.1274,1.1276,1.1278,1.1286,1.1284,1.1281,1.1279,1.1444,1.1451,1.1459,0,0,0,0,0,0,0,0,0,0,0,0,0,1.0964,1.0832,1.1116,1.1142,1.1146,1.1273,1.1276,1.1279,1.1286,1.1284,1.1281,1.1278,1.1442,1.145,1.146,1.1572,0,0,1.1488,1.1492,0,0,0,0,0,0,0,0,1.0956,1.0975,1.1136,1.1141,1.1145,1.1257,1.1234,1.1377,1.1287,1.1233,1.128,1.1277,1.1386,1.1399,1.1435,1.158,1.1587,1.1489,1.1494,1.1498,1.1501,0,0,0,0,0,0,0,1.0947,1.0968,1.1179,1.1139,1.1144,1.1148,1.1164,1.1261,1.1323,1.1238,1.1239,1.1257,1.1388,1.1426,1.1439,1.159,1.1488,1.1496,1.1502,1.1506,1.1837,1.184,0,0,0,0,0,0,1.0931,1.096,1.1174,1.1183,1.1042,1.1155,1.1174,1.1224,1.1322,1.1334,1.1259,1.1257,1.1412,1.1428,1.1445,1.1585,1.1498,1.1507,1.1512,1.1834,1.1838,1.1841,0,0,0,0,0,0,1.0925,1.095,1.1167,1.1072,1.11,1.1163,1.122,1.1229,1.1267,1.1338,1.135,1.1287,1.141,1.1432,1.1541,1.1591,1.1511,1.1519,1.183,1.1835,1.184,1.1866,0,0,0,0,0,0,1.0917,1.0948,1.099,1.1073,1.1105,1.1259,1.1223,1.1234,1.1283,1.1281,1.1368,1.1379,1.141,1.1527,1.155,1.1602,1.1526,1.1826,1.1832,1.1838,1.1861,1.1871,1.188,0,0,0,0,0,1.0906,1.0992,1.0992,1.1018,1.1159,1.1262,1.1281,1.1313,1.1287,1.1331,1.1377,1.1377,1.1581,1.1538,1.1564,1.162,1.1823,1.1831,1.1838,1.1856,1.1869,1.1879,0,0,0,0,0,0,1.0915,1.1003,1.1005,1.1119,1.1183,1.1263,1.132,1.1325,1.1398,1.1393,1.1431,1.1451,1.1559,1.16,1.155,1.1735,1.1699,1.1712,1.1705,1.1717,1.1726,1.1715,1.1534,0,0,0,0,0,1.0929,1.1004,1.1078,1.1172,1.1204,1.1256,1.1302,1.1321,1.1389,1.1417,1.147,1.1538,1.1617,1.1669,1.1746,1.1866,1.1886,1.1917,1.1927,1.1934,1.1946,1.2014,1.203,1.1866,1.1866,1.1865,0,0,1.0962,1.1019,1.1064,1.1175,1.1227,1.1305,1.1279,1.1362,1.1422,1.143,1.1536,1.1578,1.1656,1.1771,1.1824,1.1808,1.1995,1.1943,1.1949,1.1957,1.2023,1.2039,1.2053,1.1871,1.187,1.1869,0,0,1.1061,1.1111,1.1196,1.1248,1.1326,1.136,1.138,1.146,1.1488,1.1595,1.1603,1.1675,1.181,1.1866,1.1912,1.2033,1.2037,1.2057,1.2107,1.2174,1.2187,1.2198,1.2244,1.2259,1.2067,1.2067,1.2067,0,1.1092,1.1209,1.1239,1.1323,1.1373,1.1382,1.147,1.1519,1.1619,1.1654,1.1634,1.1805,1.1858,1.1987,1.2017,1.2053,1.2079,1.2048,1.2182,1.2194,1.2205,1.2249,1.2266,1.207,1.2069,1.2069,1.2069,0,1.1244,1.1325,1.1384,1.148,1.1536,1.1621,1.1666,1.1719,1.1733,1.177,1.188,1.1943,1.2034,1.2066,1.2081,1.2198,1.2186,1.2174,1.2139,1.2223,1.2265,1.2282,1.2073,1.2072,1.2071,1.2071,0,0,1.1354,1.1465,1.1486,1.153,1.1617,1.1682,1.1768,1.1856,1.1902,1.197,1.2045,1.216,1.2149,1.2202,1.2223,1.2281,1.2375,1.2262,1.2264,1.2283,1.2512,1.2523,1.2541,1.2377,1.2381,1.2383,1.2506,0,1.1464,1.1617,1.1647,1.1781,1.1857,1.1868,1.1943,1.2006,1.2042,1.2114,1.2155,1.2237,1.2215,1.2247,1.2305,1.2352,1.2422,1.2343,1.245,1.2454,1.2433,1.2563,1.2574,1.2687,1.2523,1.2525,1.2527,0,1.1614,1.1686,1.1826,1.1905,1.1938,1.2005,1.2089,1.2156,1.2228,1.2251,1.231,1.2325,1.2417,1.2376,1.2505,1.245,1.2496,1.2525,1.253,1.2544,1.2497,1.2582,1.2724,1.2742,1.2553,1.2551,1.2549,0,1.1683,1.1815,1.1917,1.1954,1.2047,1.2094,1.2135,1.2204,1.2255,1.2329,1.2363,1.2447,1.2493,1.2558,1.2596,1.2562,1.2723,1.2685,1.2747,1.2747,1.2783,1.2781,1.2936,1.2808,1.2807,1.2807,1.2807,0,1.1805,1.1892,1.1949,1.2012,1.211,1.2144,1.224,1.2281,1.2342,1.2415,1.2428,1.2496,1.2541,1.2616,1.2646,1.275,1.277,1.2793,1.2801,1.2794,1.2791,1.2826,1.282,1.2812,1.2811,1.281,1.2809,0,1.19,1.1941,1.2054,1.2132,1.2154,1.2223,1.2291,1.2354,1.239,1.2482,1.2505,1.2564,1.2653,1.2696,1.2807,1.2827,1.2946,1.2947,1.2921,1.2925,1.2986,1.2981,1.3172,1.32,1.305,1.3051,1.3052,0,1.1976,1.2043,1.2128,1.2177,1.222,1.2298,1.2351,1.2387,1.2441,1.2529,1.2581,1.267,1.2744,1.2886,1.294,1.3025,1.303,1.3091,1.3043,1.3035,1.3035,1.3031,1.3039,1.3101,1.3102,1.3103,1.3104,0,1.2108,1.2125,1.2199,1.2282,1.2344,1.2411,1.2477,1.2516,1.2563,1.2624,1.2715,1.2772,1.2885,1.2975,1.3064,1.3108,1.3116,1.3118,1.3138,1.3133,1.3117,1.3129,1.2948,1.3115,1.3113,1.3113,1.3112,1.3112,1.2198,1.2258,1.2328,1.2411,1.2464,1.2526,1.2589,1.2633,1.2709,1.2803,1.282,1.2917,1.2989,1.3109,1.3157,1.3234,1.3221,1.3248,1.3256,1.3263,1.3268,1.3101,1.325,1.325,1.325,1.325,1.325,0,1.2332,1.2378,1.2454,1.2545,1.2611,1.261,1.2683,1.2739,1.2824,1.2889,1.2961,1.3067,1.3154,1.3214,1.3303,1.3354,1.3359,1.3376,1.3374,1.3385,1.3273,1.3249,1.337,1.337,1.337,1.337,1.337,1.337,1.241,1.2514,1.2539,1.267,1.2715,1.281,1.2852,1.2909,1.2962,1.3079,1.3151,1.3189,1.3253,1.3347,1.3428,1.3443,1.3477,1.3494,1.351,1.3405,1.3392,1.338,1.3358,1.35,1.35,1.3616,1.3617,1.3618]},{"header":{"parameterUnit":"m.s-1","parameterCategory":1,"la1":30.2991,"la2":30.254,"lo1":-89.0895,"lo2":-89.0444,"dy":0.0017,"dx":0.0017,"nx":28,"ny":28,"refTime":"2023-06-26T21:00:00:Z","depth":0,"parameterNumber":3,"parameterNumberName":"V-component_of_WINDS"},"data":[0,0,0,0,0,0,0,0,0,0,0,0,0,0,0,0,0,0,0,0,0,0,0,0,0,0,0,0,0,0,0,0,0,0,0,0,0,0,0,0,0,0,0,0,0,0,0,0,0,0,0,0,0,0,0,0,0,0,2.2759,2.276,0,2.2847,2.2848,2.2849,2.282,2.2819,2.2817,2.2815,2.2901,2.2905,2.2909,0,0,0,0,0,0,0,0,0,0,0,0,0,2.2562,2.2566,2.2759,2.276,2.2761,2.2847,2.2848,2.285,2.2821,2.2818,2.2816,2.2814,2.29,2.2904,2.2909,0,0,0,0,0,0,0,0,0,0,0,0,0,2.2649,2.2567,2.2759,2.2757,2.2758,2.2847,2.2848,2.285,2.2821,2.2818,2.2816,2.2813,2.2898,2.2904,2.291,2.3004,0,0,2.2928,2.2931,0,0,0,0,0,0,0,0,2.2644,2.2656,2.2757,2.2758,2.2759,2.282,2.2811,2.2901,2.2822,2.2797,2.2815,2.2812,2.2876,2.2884,2.2906,2.3008,2.3012,2.2929,2.2933,2.2935,2.2937,0,0,0,0,0,0,0,2.2638,2.2652,2.2794,2.2758,2.2759,2.2751,2.276,2.2828,2.2851,2.2799,2.2797,2.2808,2.2876,2.2901,2.2908,2.3013,2.2929,2.2934,2.2938,2.294,2.3197,2.32,0,0,0,0,0,0,2.2632,2.2647,2.2791,2.2797,2.2693,2.2757,2.2767,2.2803,2.2851,2.2855,2.2811,2.2807,2.2892,2.2901,2.2911,2.3026,2.2935,2.2941,2.2944,2.3194,2.3198,2.3202,0,0,0,0,0,0,2.2628,2.2645,2.2788,2.2722,2.2739,2.2764,2.2804,2.2806,2.2831,2.2859,2.2863,2.2832,2.289,2.2902,2.2982,2.3028,2.2944,2.2949,2.319,2.3195,2.32,2.3255,0,0,0,0,0,0,2.2622,2.2644,2.2681,2.2723,2.2743,2.2858,2.2807,2.281,2.2842,2.2838,2.288,2.2884,2.2888,2.2973,2.2988,2.3035,2.2954,2.3186,2.3193,2.3198,2.3249,2.3261,2.3271,0,0,0,0,0,2.2615,2.2691,2.2683,2.27,2.279,2.2861,2.2872,2.2877,2.2846,2.2883,2.2901,2.2883,2.302,2.2981,2.2998,2.3047,2.3184,2.3191,2.3198,2.3244,2.3259,2.3271,0,0,0,0,0,0,2.2652,2.2697,2.2688,2.278,2.2817,2.2856,2.2902,2.2892,2.2937,2.2931,2.2933,2.2943,2.3025,2.3044,2.2999,2.3141,2.3097,2.3108,2.3127,2.3141,2.3151,2.3146,2.2959,0,0,0,0,0,2.2672,2.2727,2.2762,2.284,2.2859,2.2878,2.2909,2.291,2.2947,2.2963,2.2986,2.3023,2.3074,2.3108,2.3157,2.3251,2.326,2.3293,2.3304,2.3313,2.3323,2.3375,2.3391,2.3225,2.3225,2.3225,0,0,2.2711,2.2742,2.2777,2.2848,2.2877,2.2934,2.2891,2.2952,2.2994,2.2971,2.3049,2.3067,2.3108,2.3196,2.3235,2.3214,2.3371,2.3322,2.3329,2.3334,2.3384,2.34,2.3414,2.323,2.3229,2.3228,0,0,2.2813,2.2842,2.2911,2.2941,2.2986,2.2998,2.3014,2.3055,2.3067,2.3145,2.313,2.3178,2.3267,2.3297,2.3324,2.3438,2.3423,2.3453,2.3511,2.3562,2.3575,2.3587,2.3629,2.3643,2.3463,2.3463,2.3463,0,2.2856,2.2942,2.2947,2.301,2.3042,2.3026,2.3095,2.3124,2.3182,2.3204,2.3179,2.3291,2.3317,2.3412,2.344,2.3461,2.348,2.3449,2.3573,2.3585,2.3596,2.3636,2.3651,2.3466,2.3466,2.3465,2.3465,0,2.2994,2.3054,2.3103,2.3162,2.32,2.3265,2.3279,2.3316,2.3313,2.3328,2.3407,2.3438,2.3493,2.3516,2.3512,2.361,2.3596,2.3572,2.3528,2.3615,2.3653,2.3668,2.3471,2.347,2.3469,2.3468,0,0,2.3121,2.3183,2.3201,2.3228,2.3277,2.3323,2.3387,2.3443,2.3476,2.3516,2.357,2.3646,2.3625,2.3655,2.3656,2.37,2.379,2.3671,2.3672,2.3693,2.3901,2.3919,2.3937,2.378,2.3783,2.3785,2.3898,0,2.3228,2.3345,2.3351,2.3456,2.3512,2.3497,2.3553,2.3589,2.3604,2.3652,2.3668,2.3722,2.369,2.3708,2.3752,2.377,2.3832,2.3761,2.3831,2.3833,2.3823,2.3956,2.3976,2.4081,2.3912,2.3915,2.3916,0,2.3368,2.3415,2.3527,2.3569,2.3592,2.3643,2.3696,2.3742,2.3782,2.379,2.3825,2.3819,2.3884,2.3837,2.3928,2.388,2.3909,2.3922,2.3926,2.3934,2.3881,2.3969,2.4114,2.413,2.3939,2.3937,2.3936,0,2.3452,2.3543,2.3622,2.3645,2.3695,2.3732,2.3754,2.3791,2.3825,2.387,2.3892,2.3943,2.3971,2.4011,2.4019,2.3983,2.411,2.4063,2.4118,2.4118,2.4146,2.4145,2.43,2.4163,2.4162,2.4162,2.4162,0,2.3571,2.364,2.366,2.3709,2.3786,2.3792,2.3867,2.3887,2.392,2.3972,2.3961,2.4009,2.4016,2.4066,2.4072,2.4147,2.4159,2.4167,2.4168,2.4169,2.4168,2.4188,2.4182,2.4166,2.4165,2.4165,2.4164,0,2.3678,2.3694,2.3779,2.3821,2.3833,2.3888,2.3923,2.3969,2.3983,2.4048,2.4064,2.4086,2.4144,2.4155,2.4223,2.4227,2.4317,2.431,2.4305,2.4304,2.4359,2.4355,2.4534,2.4558,2.4404,2.4405,2.4406,0,2.3754,2.3807,2.3855,2.3889,2.3914,2.397,2.4005,2.4012,2.4049,2.4099,2.4139,2.4196,2.4243,2.4336,2.4357,2.4409,2.4404,2.4463,2.4412,2.4412,2.4407,2.4404,2.441,2.4474,2.4475,2.4477,2.4478,0,2.3887,2.3892,2.3944,2.3999,2.4041,2.4084,2.4125,2.4154,2.4166,2.4208,2.4268,2.4305,2.4375,2.4432,2.4485,2.4506,2.4495,2.4494,2.451,2.4512,2.4507,2.4512,2.4333,2.449,2.4489,2.4488,2.4487,2.4487,2.3981,2.4028,2.407,2.4128,2.416,2.4199,2.4245,2.4265,2.4317,2.4376,2.4377,2.4443,2.4481,2.4551,2.4576,2.4627,2.4608,2.4631,2.4637,2.4643,2.4649,2.4498,2.4636,2.4636,2.4636,2.4635,2.4635,0,2.4115,2.4141,2.4195,2.4253,2.4299,2.4285,2.433,2.4369,2.4428,2.4465,2.4512,2.4582,2.4637,2.4663,2.4718,2.4754,2.475,2.4768,2.4766,2.4772,2.4662,2.4643,2.4771,2.4771,2.4771,2.4771,2.4771,2.4771,2.419,2.427,2.4281,2.4376,2.4401,2.4468,2.4495,2.453,2.4561,2.464,2.4687,2.4704,2.4737,2.4794,2.4844,2.485,2.4871,2.4892,2.4896,2.4793,2.4779,2.4766,2.4749,2.4897,2.4897,2.5002,2.5003,2.5004]}]]